Klamath Falls, OR

10:55 PM PST on February 26, 2017 (GMT -0800)
Klamath Falls International

Weather History for KLMT - October, 2013

Change the Weather History Date:

Tuesday, October 15, 2013

  Actual Average Record
Temperature  
Mean Temperature 45 °F 47 °F  
Max Temperature 62 °F 64 °F 85 °F (1961)
Min Temperature 27 °F 31 °F 22 °F (1966)
Degree Days  
Heating Degree Days 20 18  
Month to date heating degree days 318 225  
Since 1 July heating degree days 642 581  
Cooling Degree Days 0 0  
Month to date cooling degree days 0 0  
Year to date cooling degree days 285 169  
Moisture  
Dew Point 26 °F    
Average Humidity 57    
Maximum Humidity 85    
Minimum Humidity 25    
Precipitation  
Precipitation 0.00 in 0.02 in 0.52 in (1969)
Month to date precipitation 0.01 0.25  
Year to date precipitation 4.91 10.52  
Sea Level Pressure  
Sea Level Pressure 30.25 in    
Wind  
Wind Speed 3 mph (ENE)    
Max Wind Speed 14 mph    
Max Gust Speed 17 mph    
Visibility 10 miles    
Events      
T = Trace of Precipitation, MM = Missing Value Source: NWS Daily Summary

Daily Weather History Graph

Daily Weather History Graph

Search for Another Location

Airport or City:

Trip Planner

Search our weather history database for the weather conditions in past years. The results will help you decide how hot, cold, wet, or windy it might be!

Date:

Astronomy

Oct. 15, 2013 Rise Set
Actual Time 7:19 AM PDT 6:24 PM PDT
Civil Twilight 6:51 AM PDT 6:52 PM PDT
Nautical Twilight 6:19 AM PDT 7:25 PM PDT
Astronomical Twilight 5:46 AM PDT 7:57 PM PDT
Moon 4:35 PM PDT (10/15) 3:45 AM PDT (10/15)
Length of Visible Light 12h 01m
Length of Day
11h 04m
Waxing Gibbous, 88% of the Moon is Illuminated
Oct 15
Waxing Gibbous
Oct 18
Full
Oct 26
Last Quarter
Nov 3
New
Nov 9
First Quarter

Hourly Weather History & Observations

Time (PDT) Temp. Windchill Dew Point Humidity Pressure Visibility Wind Dir Wind Speed Gust Speed Precip Events Conditions
12:53 AM 39.0 °F 35.7 °F 26.1 °F 60% 30.27 in 10.0 mi Variable 4.6 mph - N/A   Clear
1:53 AM 37.9 °F 32.7 °F 30.0 °F 73% 30.29 in 10.0 mi North 6.9 mph - N/A   Clear
2:53 AM 35.1 °F - 28.0 °F 76% 30.28 in 10.0 mi Calm Calm - N/A   Clear
3:53 AM 35.1 °F 31.0 °F 27.0 °F 72% 30.27 in 10.0 mi NNE 4.6 mph - N/A   Clear
4:53 AM 30.9 °F - 26.1 °F 82% 30.28 in 10.0 mi Calm Calm - N/A   Clear
5:53 AM 33.1 °F - 28.9 °F 85% 30.28 in 10.0 mi Calm Calm - N/A   Clear
6:53 AM 32.0 °F 23.0 °F 26.1 °F 79% 30.31 in 10.0 mi East 11.5 mph - N/A   Clear
7:53 AM 33.1 °F - 26.1 °F 75% 30.34 in 10.0 mi Calm Calm - N/A   Clear
8:53 AM 41.0 °F 39.0 °F 28.0 °F 60% 30.32 in 10.0 mi East 3.5 mph - N/A   Clear
9:53 AM 44.1 °F 39.5 °F 27.0 °F 51% 30.32 in 10.0 mi East 8.1 mph - N/A   Clear
10:53 AM 48.0 °F - 26.1 °F 42% 30.28 in 10.0 mi ENE 12.7 mph - N/A   Clear
11:53 AM 50.0 °F - 27.0 °F 41% 30.27 in 10.0 mi Calm Calm - N/A   Clear
12:53 PM 53.1 °F - 27.0 °F 37% 30.26 in 10.0 mi SW 6.9 mph - N/A   Clear
1:53 PM 55.9 °F - 27.0 °F 33% 30.22 in 10.0 mi SE 4.6 mph - N/A   Clear
2:53 PM 59.0 °F - 25.0 °F 27% 30.20 in 9.0 mi Calm Calm - N/A   Clear
3:53 PM 60.1 °F - 24.1 °F 25% 30.19 in 10.0 mi South 3.5 mph - N/A   Clear
4:53 PM 60.1 °F - 24.1 °F 25% 30.18 in 10.0 mi Variable 3.5 mph - N/A   Clear
5:53 PM 57.9 °F - 24.1 °F 27% 30.17 in 10.0 mi Calm Calm - N/A   Clear
6:53 PM 46.9 °F - 27.0 °F 46% 30.21 in 10.0 mi NW 3.5 mph - N/A   Clear
7:53 PM 41.0 °F 37.1 °F 28.0 °F 60% 30.22 in 10.0 mi North 5.8 mph - N/A   Clear
8:53 PM 37.0 °F - 26.1 °F 65% 30.22 in 10.0 mi Calm Calm - N/A   Clear
9:53 PM 32.0 °F - 25.0 °F 75% 30.22 in 10.0 mi Calm Calm - N/A   Clear
10:53 PM 30.9 °F - 24.1 °F 76% 30.22 in 10.0 mi Calm Calm - N/A   Clear
11:53 PM 28.9 °F 25.2 °F 24.1 °F 82% 30.20 in 10.0 mi NE 3.5 mph - N/A   Clear